This demonstration page uses our WeatherBlox Daily Observations layout. Learn more.

Left ArrowRight Arrow

36.17497, -115.13722

Hourly Observations for April 16, 2020

Temp ( °F °C ) Dew Point ( °F °C ) Humidity (%) Winds ( mph kmh ) Pressure ( in mb ) Visibility ( mi km ) Precip ( " mm )
12:53 am 00:53 Clear 61 16.1 26 -3.3 26 26 N N/A 29.84 1011 10 16 N/A
1:53 am 01:53 Clear 60 15.6 27 -2.8 28 28 NNW 6 9 29.83 1010 10 16 N/A
2:53 am 02:53 Clear 59 15 28 -2.2 31 31 W 3 6 29.83 1010 10 16 N/A
3:53 am 03:53 Clear 59 15 27 -2.8 29 29 N N/A 29.83 1010 10 16 N/A
4:53 am 04:53 Clear 58 14.4 27 -2.8 31 31 WNW 3 6 29.83 1010 10 16 N/A
5:53 am 05:53 Clear 56 13.3 28 -2.2 34 34 NW 6 9 29.84 1011 10 16 N/A
6:53 am 06:53 Sunny 56 13.3 29 -1.7 36 36 NW 8 13 29.86 1011 10 16 N/A
7:53 am 07:53 Sunny 62 16.7 30 -1.1 30 30 N 6 9 29.88 1012 10 16 N/A
8:53 am 08:53 Sunny 65 18.3 30 -1.1 27 27 SSW 3 6 29.88 1012 10 16 N/A
9:53 am 09:53 Sunny 68 20 30 -1.1 24 24 NE 8 13 29.90 1013 10 16 N/A
10:53 am 10:53 Sunny 73 22.8 29 -1.7 19 19 E 16 26 29.91 1013 10 16 N/A
11:53 am 11:53 Sunny 75 23.9 29 -1.7 18 18 E 13 20 29.89 1012 10 16 N/A
12:53 pm 12:53 Sunny 76 24.4 30 -1.1 18 18 ESE 6 9 29.88 1012 10 16 N/A
1:53 pm 13:53 Sunny 77 25 29 -1.7 17 17 ESE 6 9 29.87 1012 10 16 N/A
2:53 pm 14:53 Sunny 78 25.6 30 -1.1 17 17 ESE 7 11 29.85 1011 10 16 N/A
3:53 pm 15:53 Sunny 79 26.1 30 -1.1 17 17 E 3 6 29.83 1010 10 16 N/A
4:53 pm 16:53 Sunny 78 25.6 30 -1.1 17 17 N N/A 29.81 1010 10 16 N/A
5:53 pm 17:53 Sunny 79 26.1 31 -0.6 17 17 ENE 6 9 29.80 1009 10 16 N/A
6:53 pm 18:53 Sunny 78 25.6 30 -1.1 17 17 N N/A 29.80 1009 10 16 N/A
7:53 pm 19:53 Partly Cloudy 75 23.9 28 -2.2 18 18 ESE 8 13 29.81 1009 10 16 N/A
8:53 pm 20:53 Clear 73 22.8 30 -1.1 20 20 ESE 5 7 29.82 1010 10 16 N/A
9:53 pm 21:53 Mostly Clear 70 21.1 31 -0.6 23 23 N 5 7 29.84 1011 10 16 N/A
10:53 pm 22:53 Clear 69 20.6 33 0.6 26 26 W 6 9 29.83 1010 10 16 N/A
11:53 pm 23:53 Clear 66 18.9 33 0.6 29 29 WNW 5 7 29.84 1010 10 16 N/A

Powered by AerisWeather